Terminal Aerodrome Forecast
Issued by NWS

Home | Current Version | Previous Version | Text Only | Print | Product List | Glossary On
Versions: 1 2 3 4 5 6 7 8 9 10 11 12 13 14 15 16 17 18 19 20 21 22 23 24 25
000
FTUS46 KMTR 291305 AAA
TAFSFO
TAF AMD
KSFO 291305Z 2913/3018 27005KT P6SM FEW015
     FM292200 29015KT P6SM FEW015
     FM300400 29008KT P6SM FEW015
     FM300700 28007KT P6SM BKN015=

USA.gov is the U.S. government's official web portal to all federal, state and local government web resources and services.